User: anonymous   Login
Location: Unspecified
(0.0000°N, 0.0000°E)
Time: 13:45:07
(UTC+00:00)
Language:

Kosmos-2315 - Orbit

View from above orbital plane
View from above orbital plane
View from above satellite
View from above satellite

Ground track
Ground track

The orbit data is extracted from the following two-line orbital elements,

1 23603U 95032A   18018.05979278  .00000021  00000-0  63723-5 0  9997
2 23603  82.9037  11.7277 0032308 108.7816 313.3594 13.72840050129388
Epoch (UTC): 18 January 2018 01:26:06
Eccentricity: 0.0032308
inclination: 82.9037°
perigee height: 965 km
apogee height: 1013 km
right ascension of ascending node: 11.7277°
argument of perigee: 108.7816°
revolutions per day: 13.72840050
mean anomaly at epoch: 313.3594°
orbit number at epoch: 12938

The dashed part of the orbit path shows where the satellite is in the earth's shadow,  

DLR